Location: Boiro
(42.6475°N, 8.8834°W)
Time: 12:05:48
(UTC+01:00)

Vanguard 1 Rocket - Pass Details

Date: 02 December 2021
Orbit: 651 x 4224 km, 34.3° (Epoch: 21 January)

Event Time Altitude Azimuth Distance (km) Brightness Sun altitude
Exits shadow 04:47:45 53° 179° (S) 2,895 9.6 -43.3°
Maximum altitude 04:49:31 55° 158° (SSE) 3,002 9.8 -43.0°
Drops below altitude 10° 05:10:09 10° 89° (E) 7,038 12.6 -39.2°
Sets 05:16:30 0° 86° (E) 8,332 13.2 -38.0°
